Time,TemperatureF,DewpointF,PressureIn,WindDirection,WindDirectionDegrees,WindSpeedMPH,WindSpeedGustMPH,Humidity,HourlyPrecipIn,Conditions,Clouds,dailyrainin,SoftwareType,DateUTC
2013-01-27 00:01:00,32.0,23.7,30.43,North,360,3.0,4.0,71,0.00,,,0.00,Wunderground v.1.15,2013-01-27 05:01:00,
2013-01-27 00:03:00,32.0,23.7,30.43,North,360,3.0,4.0,71,0.00,,,0.00,Wunderground v.1.15,2013-01-27 05:03:00,
2013-01-27 00:07:00,31.9,23.6,30.44,North,360,3.0,4.0,71,0.00,,,0.00,Wunderground v.1.15,2013-01-27 05:07:00,
2013-01-27 00:09:00,31.8,23.5,30.44,North,360,3.0,6.0,71,0.00,,,0.00,Wunderground v.1.15,2013-01-27 05:09:00,
2013-01-27 00:11:00,31.7,23.4,30.44,North,360,4.0,6.0,71,0.00,,,0.00,Wunderground v.1.15,2013-01-27 05:11:00,
2013-01-27 00:15:00,31.5,23.2,30.44,North,360,4.0,6.0,71,0.00,,,0.00,Wunderground v.1.15,2013-01-27 05:15:00,
2013-01-27 00:17:00,31.4,23.1,30.44,North,360,5.0,6.0,71,0.00,,,0.00,Wunderground v.1.15,2013-01-27 05:17:00,
2013-01-27 00:21:00,31.7,23.7,30.44,North,360,4.0,6.0,72,0.00,,,0.00,Wunderground v.1.15,2013-01-27 05:21:00,
2013-01-27 00:23:00,31.6,23.3,30.44,North,360,4.0,6.0,71,0.00,,,0.00,Wunderground v.1.15,2013-01-27 05:23:00,
2013-01-27 00:29:00,31.9,23.6,30.44,North,360,5.0,5.0,71,0.00,,,0.00,Wunderground v.1.15,2013-01-27 05:29:00,
2013-01-27 00:33:00,32.0,23.3,30.45,North,360,4.0,5.0,70,0.00,,,0.00,Wunderground v.1.15,2013-01-27 05:33:00,
2013-01-27 00:35:00,32.0,23.3,30.45,North,360,4.0,5.0,70,0.00,,,0.00,Wunderground v.1.15,2013-01-27 05:35:00,
2013-01-27 00:37:00,31.9,23.2,30.45,North,360,4.0,5.0,70,0.00,,,0.00,Wunderground v.1.15,2013-01-27 05:37:00,
2013-01-27 00:39:00,31.8,23.1,30.45,North,360,4.0,4.0,70,0.00,,,0.00,Wunderground v.1.15,2013-01-27 05:39:00,
2013-01-27 00:45:00,31.5,23.2,30.44,North,360,4.0,5.0,71,0.00,,,0.00,Wunderground v.1.15,2013-01-27 05:45:00,
2013-01-27 00:47:00,31.4,23.1,30.44,North,360,4.0,5.0,71,0.00,,,0.00,Wunderground v.1.15,2013-01-27 05:47:00,
2013-01-27 00:49:00,31.4,23.1,30.44,North,360,4.0,4.0,71,0.00,,,0.00,Wunderground v.1.15,2013-01-27 05:49:00,
2013-01-27 00:51:00,31.3,23.0,30.44,North,360,4.0,4.0,71,0.00,,,0.00,Wunderground v.1.15,2013-01-27 05:51:00,
2013-01-27 00:54:00,31.3,23.3,30.44,North,360,3.0,4.0,72,0.00,,,0.00,Wunderground v.1.15,2013-01-27 05:54:00,
2013-01-27 00:57:00,31.4,23.4,30.44,North,360,3.0,5.0,72,0.00,,,0.00,Wunderground v.1.15,2013-01-27 05:57:00,
2013-01-27 00:59:00,31.4,23.1,30.44,North,360,3.0,3.0,71,0.00,,,0.00,Wunderground v.1.15,2013-01-27 05:59:00,
2013-01-27 01:05:00,30.9,22.6,30.44,North,360,4.0,5.0,71,0.00,,,0.00,Wunderground v.1.15,2013-01-27 06:05:00,
2013-01-27 01:07:00,31.1,23.1,30.44,North,360,4.0,5.0,72,0.00,,,0.00,Wunderground v.1.15,2013-01-27 06:07:00,
2013-01-27 01:09:00,31.1,24.4,30.44,North,360,3.0,4.0,76,0.00,,,0.00,Wunderground v.1.15,2013-01-27 06:09:00,
2013-01-27 01:13:00,30.9,22.6,30.45,North,360,3.0,4.0,71,0.00,,,0.00,Wunderground v.1.15,2013-01-27 06:13:00,
2013-01-27 01:15:00,30.9,22.6,30.45,North,360,3.0,4.0,71,0.00,,,0.00,Wunderground v.1.15,2013-01-27 06:15:00,
2013-01-27 01:17:00,31.0,23.0,30.45,North,360,3.0,4.0,72,0.00,,,0.00,Wunderground v.1.15,2013-01-27 06:17:00,
2013-01-27 01:21:00,31.3,23.0,30.45,North,360,3.0,6.0,71,0.00,,,0.00,Wunderground v.1.15,2013-01-27 06:21:00,
2013-01-27 01:24:00,31.6,23.3,30.45,North,360,3.0,6.0,71,0.00,,,0.00,Wunderground v.1.15,2013-01-27 06:24:00,
2013-01-27 01:27:00,31.7,23.0,30.46,North,360,4.0,6.0,70,0.00,,,0.00,Wunderground v.1.15,2013-01-27 06:27:00,
2013-01-27 01:29:00,31.6,22.9,30.45,North,360,4.0,4.0,70,0.00,,,0.00,Wunderground v.1.15,2013-01-27 06:29:00,
2013-01-27 01:35:00,31.4,22.7,30.46,North,360,4.0,5.0,70,0.00,,,0.00,Wunderground v.1.15,2013-01-27 06:35:00,
2013-01-27 01:39:00,31.3,22.6,30.46,North,360,5.0,6.0,70,0.00,,,0.00,Wunderground v.1.15,2013-01-27 06:39:00,
2013-01-27 01:41:00,31.4,22.7,30.46,North,360,4.0,6.0,70,0.00,,,0.00,Wunderground v.1.15,2013-01-27 06:41:00,
2013-01-27 01:43:00,31.4,22.4,30.45,North,360,5.0,6.0,69,0.00,,,0.00,Wunderground v.1.15,2013-01-27 06:43:00,
2013-01-27 01:45:00,31.3,22.3,30.45,North,360,5.0,6.0,69,0.00,,,0.00,Wunderground v.1.15,2013-01-27 06:45:00,
2013-01-27 01:51:00,31.2,22.2,30.46,North,360,6.0,6.0,69,0.00,,,0.00,Wunderground v.1.15,2013-01-27 06:51:00,
2013-01-27 01:54:00,31.3,22.3,30.46,North,360,5.0,6.0,69,0.00,,,0.00,Wunderground v.1.15,2013-01-27 06:54:00,
2013-01-27 01:59:00,31.4,22.1,30.46,North,360,5.0,8.0,68,0.00,,,0.00,Wunderground v.1.15,2013-01-27 06:59:00,
2013-01-27 02:01:00,31.3,22.0,30.46,North,360,5.0,8.0,68,0.00,,,0.00,Wunderground v.1.15,2013-01-27 07:01:00,
2013-01-27 02:07:00,31.2,21.5,30.46,North,360,5.0,8.0,67,0.00,,,0.00,Wunderground v.1.15,2013-01-27 07:07:00,
2013-01-27 02:14:00,31.2,21.2,30.46,North,360,6.0,11.0,66,0.00,,,0.00,Wunderground v.1.15,2013-01-27 07:14:00,
2013-01-27 02:15:00,31.1,21.1,30.46,North,360,7.0,11.0,66,0.00,,,0.00,Wunderground v.1.15,2013-01-27 07:15:00,
2013-01-27 02:21:00,30.9,20.9,30.46,North,360,7.0,7.0,66,0.00,,,0.00,Wunderground v.1.15,2013-01-27 07:21:00,
2013-01-27 02:23:00,31.0,21.0,30.46,North,360,7.0,7.0,66,0.00,,,0.00,Wunderground v.1.15,2013-01-27 07:23:00,
2013-01-27 02:29:00,30.8,20.8,30.46,North,360,6.0,6.0,66,0.00,,,0.00,Wunderground v.1.15,2013-01-27 07:29:00,
2013-01-27 02:34:00,30.7,20.7,30.46,North,360,5.0,6.0,66,0.00,,,0.00,Wunderground v.1.15,2013-01-27 07:34:00,
2013-01-27 02:37:00,30.5,20.5,30.46,North,360,6.0,6.0,66,0.00,,,0.00,Wunderground v.1.15,2013-01-27 07:37:00,
2013-01-27 02:44:00,30.4,20.4,30.46,North,360,6.0,7.0,66,0.00,,,0.00,Wunderground v.1.15,2013-01-27 07:44:00,
2013-01-27 02:45:00,30.5,20.5,30.46,North,360,5.0,7.0,66,0.00,,,0.00,Wunderground v.1.15,2013-01-27 07:45:00,
2013-01-27 02:51:00,30.4,20.0,30.46,North,360,6.0,8.0,65,0.00,,,0.00,Wunderground v.1.15,2013-01-27 07:51:00,
2013-01-27 02:55:00,30.4,20.0,30.47,North,360,7.0,8.0,65,0.00,,,0.00,Wunderground v.1.15,2013-01-27 07:55:00,
2013-01-27 03:01:00,30.5,20.1,30.47,North,360,6.0,7.0,65,0.00,,,0.00,Wunderground v.1.15,2013-01-27 08:01:00,
2013-01-27 03:03:00,30.6,20.2,30.47,North,360,6.0,7.0,65,0.00,,,0.00,Wunderground v.1.15,2013-01-27 08:03:00,
2013-01-27 03:05:00,30.7,20.0,30.47,North,360,6.0,7.0,64,0.00,,,0.00,Wunderground v.1.15,2013-01-27 08:05:00,
2013-01-27 03:09:00,30.7,20.0,30.48,North,360,6.0,6.0,64,0.00,,,0.00,Wunderground v.1.15,2013-01-27 08:09:00,
2013-01-27 03:11:00,30.8,20.4,30.48,North,360,5.0,6.0,65,0.00,,,0.00,Wunderground v.1.15,2013-01-27 08:11:00,
2013-01-27 03:15:00,30.8,19.7,30.48,North,360,5.0,7.0,63,0.00,,,0.00,Wunderground v.1.15,2013-01-27 08:15:00,
2013-01-27 03:17:00,30.7,20.0,30.48,North,360,5.0,7.0,64,0.00,,,0.00,Wunderground v.1.15,2013-01-27 08:17:00,
2013-01-27 03:24:00,30.9,20.1,30.47,North,360,6.0,9.0,64,0.00,,,0.00,Wunderground v.1.15,2013-01-27 08:24:00,
2013-01-27 03:27:00,30.7,19.6,30.48,North,360,6.0,9.0,63,0.00,,,0.00,Wunderground v.1.15,2013-01-27 08:27:00,
2013-01-27 03:29:00,30.7,19.6,30.47,North,360,5.0,5.0,63,0.00,,,0.00,Wunderground v.1.15,2013-01-27 08:29:00,
2013-01-27 03:34:00,30.9,19.8,30.47,North,360,5.0,6.0,63,0.00,,,0.00,Wunderground v.1.15,2013-01-27 08:34:00,
2013-01-27 03:37:00,30.9,19.8,30.47,North,360,4.0,6.0,63,0.00,,,0.00,Wunderground v.1.15,2013-01-27 08:37:00,
2013-01-27 03:39:00,30.8,19.3,30.47,North,360,5.0,7.0,62,0.00,,,0.00,Wunderground v.1.15,2013-01-27 08:39:00,
2013-01-27 03:41:00,30.7,19.6,30.47,North,360,5.0,7.0,63,0.00,,,0.00,Wunderground v.1.15,2013-01-27 08:41:00,
2013-01-27 03:45:00,30.8,19.7,30.47,North,360,6.0,9.0,63,0.00,,,0.00,Wunderground v.1.15,2013-01-27 08:45:00,
2013-01-27 03:47:00,30.7,19.2,30.47,North,360,7.0,10.0,62,0.00,,,0.00,Wunderground v.1.15,2013-01-27 08:47:00,
2013-01-27 03:51:00,30.7,19.6,30.48,North,360,6.0,9.0,63,0.00,,,0.00,Wunderground v.1.15,2013-01-27 08:51:00,
2013-01-27 03:53:00,30.7,19.6,30.48,North,360,6.0,9.0,63,0.00,,,0.00,Wunderground v.1.15,2013-01-27 08:53:00,
2013-01-27 03:55:00,30.8,20.0,30.48,North,360,5.0,9.0,64,0.00,,,0.00,Wunderground v.1.15,2013-01-27 08:55:00,
2013-01-27 03:59:00,30.8,19.7,30.48,North,360,5.0,8.0,63,0.00,,,0.00,Wunderground v.1.15,2013-01-27 08:59:00,
2013-01-27 04:01:00,30.8,19.7,30.48,North,360,5.0,8.0,63,0.00,,,0.00,Wunderground v.1.15,2013-01-27 09:01:00,
2013-01-27 04:03:00,31.0,19.9,30.48,North,360,4.0,8.0,63,0.00,,,0.00,Wunderground v.1.15,2013-01-27 09:03:00,
2013-01-27 04:09:00,31.0,19.9,30.48,North,360,4.0,4.0,63,0.00,,,0.00,Wunderground v.1.15,2013-01-27 09:09:00,
2013-01-27 04:11:00,31.1,20.0,30.48,North,360,3.0,4.0,63,0.00,,,0.00,Wunderground v.1.15,2013-01-27 09:11:00,
2013-01-27 04:15:00,31.2,19.7,30.48,North,360,4.0,9.0,62,0.00,,,0.00,Wunderground v.1.15,2013-01-27 09:15:00,
2013-01-27 04:17:00,31.1,19.6,30.48,North,360,5.0,10.0,62,0.00,,,0.00,Wunderground v.1.15,2013-01-27 09:17:00,
2013-01-27 04:19:00,30.8,19.3,30.48,North,360,6.0,6.0,62,0.00,,,0.00,Wunderground v.1.15,2013-01-27 09:19:00,
2013-01-27 04:21:00,30.8,19.3,30.48,North,360,7.0,7.0,62,0.00,,,0.00,Wunderground v.1.15,2013-01-27 09:21:00,
2013-01-27 04:24:00,30.7,19.2,30.47,North,360,7.0,9.0,62,0.00,,,0.00,Wunderground v.1.15,2013-01-27 09:24:00,
2013-01-27 04:27:00,30.7,19.2,30.47,North,360,7.0,10.0,62,0.00,,,0.00,Wunderground v.1.15,2013-01-27 09:27:00,
2013-01-27 04:34:00,30.6,19.5,30.48,North,360,7.0,10.0,63,0.00,,,0.00,Wunderground v.1.15,2013-01-27 09:34:00,
2013-01-27 04:35:00,30.7,19.2,30.47,North,360,7.0,10.0,62,0.00,,,0.00,Wunderground v.1.15,2013-01-27 09:35:00,
2013-01-27 04:39:00,30.7,19.2,30.48,North,360,7.0,9.0,62,0.00,,,0.00,Wunderground v.1.15,2013-01-27 09:39:00,
2013-01-27 04:41:00,30.8,19.3,30.47,North,360,7.0,9.0,62,0.00,,,0.00,Wunderground v.1.15,2013-01-27 09:41:00,
2013-01-27 04:45:00,30.6,19.5,30.47,North,360,7.0,9.0,63,0.00,,,0.00,Wunderground v.1.15,2013-01-27 09:45:00,
2013-01-27 04:47:00,30.6,19.5,30.47,North,360,7.0,9.0,63,0.00,,,0.00,Wunderground v.1.15,2013-01-27 09:47:00,
2013-01-27 04:49:00,30.6,19.1,30.47,North,360,7.0,10.0,62,0.00,,,0.00,Wunderground v.1.15,2013-01-27 09:49:00,
2013-01-27 04:53:00,30.5,19.4,30.48,North,360,7.0,10.0,63,0.00,,,0.00,Wunderground v.1.15,2013-01-27 09:53:00,
2013-01-27 04:57:00,30.8,19.3,30.48,North,360,6.0,10.0,62,0.00,,,0.00,Wunderground v.1.15,2013-01-27 09:57:00,
2013-01-27 04:59:00,30.8,19.3,30.48,North,360,6.0,9.0,62,0.00,,,0.00,Wunderground v.1.15,2013-01-27 09:59:00,
2013-01-27 05:05:00,30.7,19.2,30.48,North,360,7.0,9.0,62,0.00,,,0.00,Wunderground v.1.15,2013-01-27 10:05:00,
2013-01-27 05:07:00,30.7,19.2,30.48,North,360,6.0,9.0,62,0.00,,,0.00,Wunderground v.1.15,2013-01-27 10:07:00,
2013-01-27 05:09:00,30.6,19.5,30.49,North,360,6.0,6.0,63,0.00,,,0.00,Wunderground v.1.15,2013-01-27 10:09:00,
2013-01-27 05:15:00,30.6,19.5,30.49,North,360,6.0,6.0,63,0.00,,,0.00,Wunderground v.1.15,2013-01-27 10:15:00,
2013-01-27 05:19:00,30.5,19.0,30.48,North,360,6.0,7.0,62,0.00,,,0.00,Wunderground v.1.15,2013-01-27 10:19:00,
2013-01-27 05:23:00,30.5,19.0,30.48,North,360,7.0,13.0,62,0.00,,,0.00,Wunderground v.1.15,2013-01-27 10:23:00,
2013-01-27 05:25:00,30.4,19.3,30.48,North,360,7.0,13.0,63,0.00,,,0.00,Wunderground v.1.15,2013-01-27 10:25:00,
2013-01-27 05:27:00,30.4,19.3,30.48,North,360,7.0,13.0,63,0.00,,,0.00,Wunderground v.1.15,2013-01-27 10:27:00,
2013-01-27 05:29:00,30.5,19.4,30.48,North,360,6.0,6.0,63,0.00,,,0.00,Wunderground v.1.15,2013-01-27 10:29:00,
2013-01-27 05:31:00,30.5,19.4,30.48,North,360,6.0,6.0,63,0.00,,,0.00,Wunderground v.1.15,2013-01-27 10:31:00,
2013-01-27 05:35:00,30.6,19.5,30.48,North,360,5.0,6.0,63,0.00,,,0.00,Wunderground v.1.15,2013-01-27 10:35:00,
2013-01-27 05:41:00,30.7,19.2,30.49,North,360,4.0,5.0,62,0.00,,,0.00,Wunderground v.1.15,2013-01-27 10:41:00,
2013-01-27 05:44:00,30.7,19.6,30.49,North,360,4.0,5.0,63,0.00,,,0.00,Wunderground v.1.15,2013-01-27 10:44:00,
2013-01-27 05:45:00,30.7,19.6,30.49,North,360,4.0,5.0,63,0.00,,,0.00,Wunderground v.1.15,2013-01-27 10:45:00,
2013-01-27 05:47:00,30.6,19.1,30.48,North,360,5.0,5.0,62,0.00,,,0.00,Wunderground v.1.15,2013-01-27 10:47:00,
2013-01-27 05:51:00,30.4,19.3,30.49,North,360,4.0,5.0,63,0.00,,,0.00,Wunderground v.1.15,2013-01-27 10:51:00,
2013-01-27 05:54:00,30.3,19.2,30.49,North,360,4.0,5.0,63,0.00,,,0.00,Wunderground v.1.15,2013-01-27 10:54:00,
2013-01-27 05:57:00,30.5,19.4,30.50,North,360,5.0,9.0,63,0.00,,,0.00,Wunderground v.1.15,2013-01-27 10:57:00,
2013-01-27 05:59:00,30.5,19.0,30.50,North,360,5.0,5.0,62,0.00,,,0.00,Wunderground v.1.15,2013-01-27 10:59:00,
2013-01-27 06:04:00,30.4,18.9,30.50,North,360,7.0,9.0,62,0.00,,,0.00,Wunderground v.1.15,2013-01-27 11:04:00,
2013-01-27 06:05:00,30.3,18.8,30.50,North,360,7.0,9.0,62,0.00,,,0.00,Wunderground v.1.15,2013-01-27 11:05:00,
2013-01-27 06:07:00,30.3,19.2,30.50,North,360,7.0,9.0,63,0.00,,,0.00,Wunderground v.1.15,2013-01-27 11:07:00,
2013-01-27 06:11:00,30.3,19.2,30.50,North,360,7.0,9.0,63,0.00,,,0.00,Wunderground v.1.15,2013-01-27 11:11:00,
2013-01-27 06:17:00,30.3,19.2,30.50,North,360,6.0,9.0,63,0.00,,,0.00,Wunderground v.1.15,2013-01-27 11:17:00,
2013-01-27 06:19:00,30.4,19.3,30.50,North,360,6.0,7.0,63,0.00,,,0.00,Wunderground v.1.15,2013-01-27 11:19:00,
2013-01-27 06:23:00,30.3,19.2,30.50,North,360,5.0,7.0,63,0.00,,,0.00,Wunderground v.1.15,2013-01-27 11:23:00,
2013-01-27 06:27:00,30.3,19.2,30.50,North,360,5.0,7.0,63,0.00,,,0.00,Wunderground v.1.15,2013-01-27 11:27:00,
2013-01-27 06:29:00,30.3,19.2,30.50,North,360,5.0,5.0,63,0.00,,,0.00,Wunderground v.1.15,2013-01-27 11:29:00,
2013-01-27 06:31:00,30.4,19.7,30.51,North,360,5.0,6.0,64,0.00,,,0.00,Wunderground v.1.15,2013-01-27 11:31:00,
2013-01-27 06:33:00,30.5,19.4,30.51,North,360,5.0,7.0,63,0.00,,,0.00,Wunderground v.1.15,2013-01-27 11:33:00,
2013-01-27 06:37:00,30.5,19.4,30.51,North,360,5.0,7.0,63,0.00,,,0.00,Wunderground v.1.15,2013-01-27 11:37:00,
2013-01-27 06:39:00,30.5,19.4,30.51,North,360,5.0,5.0,63,0.00,,,0.00,Wunderground v.1.15,2013-01-27 11:39:00,
2013-01-27 06:44:00,30.1,19.0,30.51,North,360,5.0,7.0,63,0.00,,,0.00,Wunderground v.1.15,2013-01-27 11:44:00,
2013-01-27 06:45:00,30.0,18.9,30.51,North,360,5.0,11.0,63,0.00,,,0.00,Wunderground v.1.15,2013-01-27 11:45:00,
2013-01-27 06:49:00,29.7,18.6,30.51,North,360,6.0,7.0,63,0.00,,,0.00,Wunderground v.1.15,2013-01-27 11:49:00,
2013-01-27 06:51:00,29.8,18.7,30.52,North,360,6.0,7.0,63,0.00,,,0.00,Wunderground v.1.15,2013-01-27 11:51:00,
2013-01-27 06:53:00,29.8,18.7,30.52,North,360,6.0,7.0,63,0.00,,,0.00,Wunderground v.1.15,2013-01-27 11:53:00,
2013-01-27 06:55:00,29.8,19.1,30.52,North,360,6.0,7.0,64,0.00,,,0.00,Wunderground v.1.15,2013-01-27 11:55:00,
2013-01-27 07:01:00,30.1,19.4,30.52,North,360,4.0,5.0,64,0.00,,,0.00,Wunderground v.1.15,2013-01-27 12:01:00,
2013-01-27 07:04:00,30.2,19.1,30.52,North,360,4.0,9.0,63,0.00,,,0.00,Wunderground v.1.15,2013-01-27 12:04:00,
2013-01-27 07:05:00,30.1,19.0,30.52,North,360,5.0,9.0,63,0.00,,,0.00,Wunderground v.1.15,2013-01-27 12:05:00,
2013-01-27 07:07:00,30.1,19.0,30.53,North,360,6.0,9.0,63,0.00,,,0.00,Wunderground v.1.15,2013-01-27 12:07:00,
2013-01-27 07:09:00,30.0,18.9,30.53,North,360,6.0,6.0,63,0.00,,,0.00,Wunderground v.1.15,2013-01-27 12:09:00,
2013-01-27 07:14:00,30.1,19.0,30.53,North,360,5.0,6.0,63,0.00,,,0.00,Wunderground v.1.15,2013-01-27 12:14:00,
2013-01-27 07:15:00,30.1,19.0,30.53,North,360,4.0,6.0,63,0.00,,,0.00,Wunderground v.1.15,2013-01-27 12:15:00,
2013-01-27 07:17:00,30.2,19.1,30.53,North,360,4.0,6.0,63,0.00,,,0.00,Wunderground v.1.15,2013-01-27 12:17:00,
2013-01-27 07:24:00,30.1,19.0,30.53,North,360,5.0,6.0,63,0.00,,,0.00,Wunderground v.1.15,2013-01-27 12:24:00,
2013-01-27 07:25:00,30.0,18.9,30.53,North,360,5.0,6.0,63,0.00,,,0.00,Wunderground v.1.15,2013-01-27 12:25:00,
2013-01-27 07:31:00,30.1,19.0,30.54,North,360,3.0,4.0,63,0.00,,,0.00,Wunderground v.1.15,2013-01-27 12:31:00,
2013-01-27 07:33:00,29.9,18.8,30.54,North,360,3.0,8.0,63,0.00,,,0.00,Wunderground v.1.15,2013-01-27 12:33:00,
2013-01-27 07:35:00,29.8,18.7,30.54,North,360,4.0,8.0,63,0.00,,,0.00,Wunderground v.1.15,2013-01-27 12:35:00,
2013-01-27 07:37:00,29.7,18.6,30.54,North,360,4.0,8.0,63,0.00,,,0.00,Wunderground v.1.15,2013-01-27 12:37:00,
2013-01-27 07:41:00,29.8,18.7,30.54,North,360,5.0,5.0,63,0.00,,,0.00,Wunderground v.1.15,2013-01-27 12:41:00,
2013-01-27 07:43:00,29.8,18.7,30.54,North,360,5.0,5.0,63,0.00,,,0.00,Wunderground v.1.15,2013-01-27 12:43:00,
2013-01-27 07:45:00,29.8,18.7,30.54,North,360,5.0,5.0,63,0.00,,,0.00,Wunderground v.1.15,2013-01-27 12:45:00,
2013-01-27 07:47:00,29.9,18.8,30.55,North,360,4.0,5.0,63,0.00,,,0.00,Wunderground v.1.15,2013-01-27 12:47:00,
2013-01-27 07:49:00,29.9,18.8,30.55,North,360,4.0,4.0,63,0.00,,,0.00,Wunderground v.1.15,2013-01-27 12:49:00,
2013-01-27 07:51:00,29.9,18.8,30.55,North,360,3.0,4.0,63,0.00,,,0.00,Wunderground v.1.15,2013-01-27 12:51:00,
2013-01-27 07:54:00,30.0,18.9,30.55,North,360,3.0,4.0,63,0.00,,,0.00,Wunderground v.1.15,2013-01-27 12:54:00,
2013-01-27 07:55:00,30.0,18.9,30.55,North,360,3.0,4.0,63,0.00,,,0.00,Wunderground v.1.15,2013-01-27 12:55:00,
2013-01-27 07:59:00,30.2,19.5,30.55,North,360,3.0,4.0,64,0.00,,,0.00,Wunderground v.1.15,2013-01-27 12:59:00,
2013-01-27 08:05:00,30.3,19.2,30.56,North,360,3.0,4.0,63,0.00,,,0.00,Wunderground v.1.15,2013-01-27 13:05:00,
2013-01-27 08:07:00,30.2,19.1,30.56,North,360,4.0,4.0,63,0.00,,,0.00,Wunderground v.1.15,2013-01-27 13:07:00,
2013-01-27 08:09:00,30.2,19.1,30.56,North,360,4.0,4.0,63,0.00,,,0.00,Wunderground v.1.15,2013-01-27 13:09:00,
2013-01-27 08:11:00,30.3,19.6,30.56,North,360,3.0,6.0,64,0.00,,,0.00,Wunderground v.1.15,2013-01-27 13:11:00,
2013-01-27 08:15:00,30.4,19.7,30.56,North,360,3.0,6.0,64,0.00,,,0.00,Wunderground v.1.15,2013-01-27 13:15:00,
2013-01-27 08:17:00,30.5,19.4,30.56,North,360,3.0,6.0,63,0.00,,,0.00,Wunderground v.1.15,2013-01-27 13:17:00,
2013-01-27 08:19:00,30.6,19.5,30.56,North,360,3.0,5.0,63,0.00,,,0.00,Wunderground v.1.15,2013-01-27 13:19:00,
2013-01-27 08:21:00,30.4,18.9,30.56,North,360,3.0,5.0,62,0.00,,,0.00,Wunderground v.1.15,2013-01-27 13:21:00,
2013-01-27 08:24:00,30.3,19.2,30.56,North,360,3.0,5.0,63,0.00,,,0.00,Wunderground v.1.15,2013-01-27 13:24:00,
2013-01-27 08:27:00,30.1,18.6,30.57,North,360,4.0,5.0,62,0.00,,,0.00,Wunderground v.1.15,2013-01-27 13:27:00,
2013-01-27 08:29:00,30.1,19.0,30.57,North,360,4.0,4.0,63,0.00,,,0.00,Wunderground v.1.15,2013-01-27 13:29:00,
2013-01-27 08:31:00,30.1,19.4,30.57,North,360,4.0,5.0,64,0.00,,,0.00,Wunderground v.1.15,2013-01-27 13:31:00,
2013-01-27 08:35:00,30.1,19.0,30.57,North,360,3.0,5.0,63,0.00,,,0.00,Wunderground v.1.15,2013-01-27 13:35:00,
2013-01-27 08:37:00,30.1,19.4,30.57,North,360,3.0,6.0,64,0.00,,,0.00,Wunderground v.1.15,2013-01-27 13:37:00,
2013-01-27 08:39:00,30.2,19.5,30.58,North,360,4.0,5.0,64,0.00,,,0.00,Wunderground v.1.15,2013-01-27 13:39:00,
2013-01-27 08:45:00,30.5,19.4,30.58,North,360,4.0,5.0,63,0.00,,,0.00,Wunderground v.1.15,2013-01-27 13:45:00,
2013-01-27 08:47:00,30.7,19.6,30.58,North,360,4.0,5.0,63,0.00,,,0.00,Wunderground v.1.15,2013-01-27 13:47:00,
2013-01-27 08:53:00,30.7,19.6,30.58,North,360,3.0,5.0,63,0.00,,,0.00,Wunderground v.1.15,2013-01-27 13:53:00,
2013-01-27 08:59:00,30.9,19.8,30.58,North,360,2.0,5.0,63,0.00,,,0.00,Wunderground v.1.15,2013-01-27 13:59:00,
2013-01-27 09:01:00,30.9,19.8,30.59,North,360,3.0,5.0,63,0.00,,,0.00,Wunderground v.1.15,2013-01-27 14:01:00,
2013-01-27 09:05:00,30.7,19.6,30.58,North,360,3.0,6.0,63,0.00,,,0.00,Wunderground v.1.15,2013-01-27 14:05:00,
2013-01-27 09:07:00,30.7,19.6,30.58,North,360,4.0,7.0,63,0.00,,,0.00,Wunderground v.1.15,2013-01-27 14:07:00,
2013-01-27 09:11:00,30.5,19.4,30.58,North,360,5.0,6.0,63,0.00,,,0.00,Wunderground v.1.15,2013-01-27 14:11:00,
2013-01-27 09:14:00,30.4,19.3,30.59,North,360,5.0,6.0,63,0.00,,,0.00,Wunderground v.1.15,2013-01-27 14:14:00,
2013-01-27 09:15:00,30.4,19.7,30.59,North,360,5.0,6.0,64,0.00,,,0.00,Wunderground v.1.15,2013-01-27 14:15:00,
2013-01-27 09:17:00,30.5,19.8,30.59,North,360,5.0,7.0,64,0.00,,,0.00,Wunderground v.1.15,2013-01-27 14:17:00,
2013-01-27 09:24:00,30.5,19.8,30.59,North,360,4.0,6.0,64,0.00,,,0.00,Wunderground v.1.15,2013-01-27 14:24:00,
2013-01-27 09:25:00,30.5,19.4,30.59,North,360,4.0,6.0,63,0.00,,,0.00,Wunderground v.1.15,2013-01-27 14:25:00,
2013-01-27 09:27:00,30.8,20.0,30.59,North,360,4.0,6.0,64,0.00,,,0.00,Wunderground v.1.15,2013-01-27 14:27:00,
2013-01-27 09:31:00,30.8,19.7,30.59,North,360,4.0,4.0,63,0.00,,,0.00,Wunderground v.1.15,2013-01-27 14:31:00,
2013-01-27 09:35:00,31.1,20.0,30.59,North,360,4.0,8.0,63,0.00,,,0.00,Wunderground v.1.15,2013-01-27 14:35:00,
2013-01-27 09:37:00,31.1,19.6,30.59,North,360,5.0,8.0,62,0.00,,,0.00,Wunderground v.1.15,2013-01-27 14:37:00,
2013-01-27 09:43:00,30.8,19.3,30.59,North,11,6.0,6.0,62,0.00,,,0.00,Wunderground v.1.15,2013-01-27 14:43:00,
2013-01-27 09:45:00,30.8,19.3,30.59,North,11,5.0,6.0,62,0.00,,,0.00,Wunderground v.1.15,2013-01-27 14:45:00,
2013-01-27 09:47:00,30.8,18.9,30.59,NNE,12,5.0,6.0,61,0.00,,,0.00,Wunderground v.1.15,2013-01-27 14:47:00,
2013-01-27 09:49:00,30.7,18.8,30.59,North,11,5.0,5.0,61,0.00,,,0.00,Wunderground v.1.15,2013-01-27 14:49:00,
2013-01-27 09:53:00,30.6,18.7,30.59,NNE,15,5.0,8.0,61,0.00,,,0.00,Wunderground v.1.15,2013-01-27 14:53:00,
2013-01-27 09:55:00,30.8,19.3,30.59,NNE,14,5.0,8.0,62,0.00,,,0.00,Wunderground v.1.15,2013-01-27 14:55:00,
2013-01-27 09:59:00,31.0,19.1,30.60,NNE,15,5.0,5.0,61,0.00,,,0.00,Wunderground v.1.15,2013-01-27 14:59:00,
2013-01-27 10:01:00,30.9,19.0,30.59,North,360,4.0,5.0,61,0.00,,,0.00,Wunderground v.1.15,2013-01-27 15:01:00,
2013-01-27 10:07:00,30.9,19.0,30.59,NNE,12,4.0,6.0,61,0.00,,,0.00,Wunderground v.1.15,2013-01-27 15:07:00,
2013-01-27 10:11:00,31.2,19.3,30.60,NNE,12,3.0,4.0,61,0.00,,,0.00,Wunderground v.1.15,2013-01-27 15:11:00,
2013-01-27 10:13:00,31.4,19.1,30.60,North,360,3.0,9.0,60,0.00,,,0.00,Wunderground v.1.15,2013-01-27 15:13:00,
2013-01-27 10:17:00,31.2,18.9,30.60,North,360,3.0,9.0,60,0.00,,,0.00,Wunderground v.1.15,2013-01-27 15:17:00,
2013-01-27 10:19:00,31.2,18.9,30.60,North,360,3.0,3.0,60,0.00,,,0.00,Wunderground v.1.15,2013-01-27 15:19:00,
2013-01-27 10:23:00,31.5,19.2,30.60,North,360,3.0,3.0,60,0.00,,,0.00,Wunderground v.1.15,2013-01-27 15:23:00,
2013-01-27 10:27:00,31.7,19.4,30.59,North,360,2.0,4.0,60,0.00,,,0.00,Wunderground v.1.15,2013-01-27 15:27:00,
2013-01-27 10:29:00,31.7,19.4,30.59,NNE,19,3.0,6.0,60,0.00,,,0.00,Wunderground v.1.15,2013-01-27 15:29:00,
2013-01-27 10:31:00,31.7,19.4,30.59,NNE,19,4.0,6.0,60,0.00,,,0.00,Wunderground v.1.15,2013-01-27 15:31:00,
2013-01-27 10:34:00,31.8,19.5,30.60,North,360,4.0,6.0,60,0.00,,,0.00,Wunderground v.1.15,2013-01-27 15:34:00,
2013-01-27 10:37:00,31.6,18.9,30.60,NNE,15,5.0,6.0,59,0.00,,,0.00,Wunderground v.1.15,2013-01-27 15:37:00,
2013-01-27 10:39:00,31.6,18.9,30.59,NNE,15,4.0,4.0,59,0.00,,,0.00,Wunderground v.1.15,2013-01-27 15:39:00,
2013-01-27 10:44:00,31.9,19.6,30.59,NNE,19,4.0,6.0,60,0.00,,,0.00,Wunderground v.1.15,2013-01-27 15:44:00,
2013-01-27 10:45:00,31.8,19.1,30.59,NNE,19,4.0,6.0,59,0.00,,,0.00,Wunderground v.1.15,2013-01-27 15:45:00,
2013-01-27 10:49:00,32.0,19.3,30.60,NNE,19,4.0,4.0,59,0.00,,,0.00,Wunderground v.1.15,2013-01-27 15:49:00,
2013-01-27 10:51:00,32.3,20.0,30.60,NNE,19,4.0,4.0,60,0.00,,,0.00,Wunderground v.1.15,2013-01-27 15:51:00,
2013-01-27 10:57:00,32.4,19.3,30.60,NNE,17,3.0,4.0,58,0.00,,,0.00,Wunderground v.1.15,2013-01-27 15:57:00,
2013-01-27 10:59:00,32.4,19.3,30.59,NNE,17,3.0,3.0,58,0.00,,,0.00,Wunderground v.1.15,2013-01-27 15:59:00,
2013-01-27 11:01:00,32.5,19.3,30.59,NNE,17,3.0,4.0,58,0.00,,,0.00,Wunderground v.1.15,2013-01-27 16:01:00,
2013-01-27 11:03:00,32.6,19.8,30.59,NNE,17,3.0,4.0,59,0.00,,,0.00,Wunderground v.1.15,2013-01-27 16:03:00,
2013-01-27 11:05:00,32.8,19.6,30.59,NNE,16,3.0,4.0,58,0.00,,,0.00,Wunderground v.1.15,2013-01-27 16:05:00,
2013-01-27 11:07:00,32.9,19.7,30.59,North,360,3.0,4.0,58,0.00,,,0.00,Wunderground v.1.15,2013-01-27 16:07:00,
2013-01-27 11:09:00,33.0,19.8,30.60,North,360,3.0,5.0,58,0.00,,,0.00,Wunderground v.1.15,2013-01-27 16:09:00,
2013-01-27 11:11:00,32.9,19.3,30.59,North,360,3.0,5.0,57,0.00,,,0.00,Wunderground v.1.15,2013-01-27 16:11:00,
2013-01-27 11:13:00,32.8,19.2,30.59,North,360,3.0,5.0,57,0.00,,,0.00,Wunderground v.1.15,2013-01-27 16:13:00,
2013-01-27 11:15:00,32.7,19.1,30.59,North,360,3.0,5.0,57,0.00,,,0.00,Wunderground v.1.15,2013-01-27 16:15:00,
2013-01-27 11:17:00,32.6,19.0,30.59,North,360,3.0,5.0,57,0.00,,,0.00,Wunderground v.1.15,2013-01-27 16:17:00,
2013-01-27 11:21:00,32.6,19.0,30.59,North,360,2.0,2.0,57,0.00,,,0.00,Wunderground v.1.15,2013-01-27 16:21:00,
2013-01-27 11:24:00,32.8,19.6,30.58,North,360,2.0,2.0,58,0.00,,,0.00,Wunderground v.1.15,2013-01-27 16:24:00,
2013-01-27 11:25:00,32.9,19.7,30.58,North,360,1.0,2.0,58,0.00,,,0.00,Wunderground v.1.15,2013-01-27 16:25:00,
2013-01-27 11:27:00,33.2,20.0,30.58,North,360,1.0,2.0,58,0.00,,,0.00,Wunderground v.1.15,2013-01-27 16:27:00,
2013-01-27 11:31:00,33.5,19.9,30.58,North,360,1.0,2.0,57,0.00,,,0.00,Wunderground v.1.15,2013-01-27 16:31:00,
2013-01-27 11:35:00,33.7,19.7,30.58,North,360,1.0,2.0,56,0.00,,,0.00,Wunderground v.1.15,2013-01-27 16:35:00,
2013-01-27 11:37:00,33.9,19.8,30.58,North,360,1.0,2.0,56,0.00,,,0.00,Wunderground v.1.15,2013-01-27 16:37:00,
2013-01-27 11:39:00,33.9,19.8,30.58,North,360,1.0,3.0,56,0.00,,,0.00,Wunderground v.1.15,2013-01-27 16:39:00,
2013-01-27 11:41:00,33.8,19.3,30.58,North,360,2.0,3.0,55,0.00,,,0.00,Wunderground v.1.15,2013-01-27 16:41:00,
2013-01-27 11:45:00,33.3,19.3,30.57,NNE,23,3.0,4.0,56,0.00,,,0.00,Wunderground v.1.15,2013-01-27 16:45:00,
2013-01-27 11:47:00,33.3,19.7,30.57,NNE,23,3.0,4.0,57,0.00,,,0.00,Wunderground v.1.15,2013-01-27 16:47:00,
2013-01-27 11:49:00,33.3,19.7,30.57,NNE,24,4.0,4.0,57,0.00,,,0.00,Wunderground v.1.15,2013-01-27 16:49:00,
2013-01-27 11:54:00,33.3,19.7,30.57,NNE,24,3.0,4.0,57,0.00,,,0.00,Wunderground v.1.15,2013-01-27 16:54:00,
2013-01-27 11:55:00,33.4,19.8,30.57,NNE,24,3.0,4.0,57,0.00,,,0.00,Wunderground v.1.15,2013-01-27 16:55:00,
2013-01-27 11:59:00,33.8,20.2,30.57,North,360,2.0,2.0,57,0.00,,,0.00,Wunderground v.1.15,2013-01-27 16:59:00,
2013-01-27 12:05:00,33.9,19.4,30.57,NNE,25,2.0,3.0,55,0.00,,,0.00,Wunderground v.1.15,2013-01-27 17:05:00,
2013-01-27 12:09:00,34.0,19.5,30.56,NNE,24,2.0,2.0,55,0.00,,,0.00,Wunderground v.1.15,2013-01-27 17:09:00,
2013-01-27 12:11:00,34.1,19.6,30.56,NNE,24,1.0,2.0,55,0.00,,,0.00,Wunderground v.1.15,2013-01-27 17:11:00,
2013-01-27 12:13:00,34.3,19.8,30.56,NNE,25,1.0,2.0,55,0.00,,,0.00,Wunderground v.1.15,2013-01-27 17:13:00,
2013-01-27 12:15:00,34.5,20.0,30.56,North,360,1.0,3.0,55,0.00,,,0.00,Wunderground v.1.15,2013-01-27 17:15:00,
2013-01-27 12:17:00,34.4,19.5,30.56,North,360,2.0,4.0,54,0.00,,,0.00,Wunderground v.1.15,2013-01-27 17:17:00,
2013-01-27 12:24:00,33.9,19.4,30.55,North,360,3.0,3.0,55,0.00,,,0.00,Wunderground v.1.15,2013-01-27 17:24:00,
2013-01-27 12:25:00,34.0,19.9,30.55,North,360,3.0,3.0,56,0.00,,,0.00,Wunderground v.1.15,2013-01-27 17:25:00,
2013-01-27 12:27:00,34.2,20.1,30.55,North,360,3.0,4.0,56,0.00,,,0.00,Wunderground v.1.15,2013-01-27 17:27:00,
2013-01-27 12:33:00,34.6,19.2,30.55,North,360,4.0,10.0,53,0.00,,,0.00,Wunderground v.1.15,2013-01-27 17:33:00,
2013-01-27 12:35:00,34.4,18.6,30.55,North,360,5.0,10.0,52,0.00,,,0.00,Wunderground v.1.15,2013-01-27 17:35:00,
2013-01-27 12:37:00,34.1,18.7,30.54,North,360,6.0,12.0,53,0.00,,,0.00,Wunderground v.1.15,2013-01-27 17:37:00,
2013-01-27 12:41:00,33.9,18.6,30.54,North,360,7.0,9.0,53,0.00,,,0.00,Wunderground v.1.15,2013-01-27 17:41:00,
2013-01-27 12:43:00,33.9,19.0,30.54,North,360,7.0,9.0,54,0.00,,,0.00,Wunderground v.1.15,2013-01-27 17:43:00,
2013-01-27 12:47:00,34.2,19.3,30.54,North,360,6.0,9.0,54,0.00,,,0.01,Wunderground v.1.15,2013-01-27 17:47:00,
2013-01-27 12:49:00,34.2,19.3,30.54,North,360,5.0,5.0,54,0.00,,,0.01,Wunderground v.1.15,2013-01-27 17:49:00,
2013-01-27 12:53:00,34.8,20.3,30.54,North,360,4.0,5.0,55,0.00,,,0.01,Wunderground v.1.15,2013-01-27 17:53:00,
2013-01-27 12:55:00,35.0,20.0,30.54,North,360,4.0,5.0,54,0.00,,,0.01,Wunderground v.1.15,2013-01-27 17:55:00,
2013-01-27 12:57:00,35.0,19.6,30.54,North,360,4.0,5.0,53,0.00,,,0.01,Wunderground v.1.15,2013-01-27 17:57:00,
2013-01-27 13:01:00,34.8,19.4,30.53,North,360,3.0,3.0,53,0.00,,,0.01,Wunderground v.1.15,2013-01-27 18:01:00,
2013-01-27 13:03:00,35.0,19.6,30.53,North,360,3.0,4.0,53,0.00,,,0.01,Wunderground v.1.15,2013-01-27 18:03:00,
2013-01-27 13:07:00,35.2,19.8,30.53,North,360,3.0,8.0,53,0.00,,,0.01,Wunderground v.1.15,2013-01-27 18:07:00,
2013-01-27 13:14:00,34.8,19.4,30.52,North,360,4.0,9.0,53,0.00,,,0.01,Wunderground v.1.15,2013-01-27 18:14:00,
2013-01-27 13:15:00,34.9,19.9,30.52,North,360,5.0,9.0,54,0.00,,,0.01,Wunderground v.1.15,2013-01-27 18:15:00,
2013-01-27 13:17:00,35.1,20.1,30.52,North,360,4.0,9.0,54,0.00,,,0.01,Wunderground v.1.15,2013-01-27 18:17:00,
2013-01-27 13:19:00,35.3,19.9,30.52,North,360,4.0,5.0,53,0.00,,,0.01,Wunderground v.1.15,2013-01-27 18:19:00,
2013-01-27 13:23:00,35.2,19.8,30.52,North,360,3.0,8.0,53,0.00,,,0.01,Wunderground v.1.15,2013-01-27 18:23:00,
2013-01-27 13:25:00,35.2,19.8,30.52,North,360,3.0,8.0,53,0.00,,,0.01,Wunderground v.1.15,2013-01-27 18:25:00,
2013-01-27 13:27:00,35.3,20.3,30.52,North,360,3.0,8.0,54,0.00,,,0.01,Wunderground v.1.15,2013-01-27 18:27:00,
2013-01-27 13:29:00,35.5,20.5,30.52,North,360,3.0,3.0,54,0.00,,,0.01,Wunderground v.1.15,2013-01-27 18:29:00,
2013-01-27 13:31:00,35.8,20.3,30.52,North,360,4.0,4.0,53,0.00,,,0.01,Wunderground v.1.15,2013-01-27 18:31:00,
2013-01-27 13:37:00,36.0,19.6,30.51,North,360,5.0,12.0,51,0.00,,,0.01,Wunderground v.1.15,2013-01-27 18:37:00,
2013-01-27 13:41:00,35.5,19.6,30.51,North,360,5.0,5.0,52,0.00,,,0.01,Wunderground v.1.15,2013-01-27 18:41:00,
2013-01-27 13:43:00,35.6,20.1,30.52,North,360,6.0,6.0,53,0.00,,,0.01,Wunderground v.1.15,2013-01-27 18:43:00,
2013-01-27 13:45:00,35.7,19.8,30.51,North,360,6.0,6.0,52,0.00,,,0.01,Wunderground v.1.15,2013-01-27 18:45:00,
2013-01-27 13:47:00,35.8,19.9,30.51,North,360,6.0,7.0,52,0.00,,,0.01,Wunderground v.1.15,2013-01-27 18:47:00,
2013-01-27 13:51:00,36.0,20.5,30.51,North,360,6.0,6.0,53,0.00,,,0.01,Wunderground v.1.15,2013-01-27 18:51:00,
2013-01-27 13:55:00,36.3,20.3,30.52,North,360,5.0,6.0,52,0.00,,,0.01,Wunderground v.1.15,2013-01-27 18:55:00,
2013-01-27 13:59:00,36.2,19.8,30.52,North,360,5.0,9.0,51,0.00,,,0.01,Wunderground v.1.15,2013-01-27 18:59:00,
2013-01-27 14:01:00,35.9,20.0,30.52,North,360,6.0,10.0,52,0.00,,,0.01,Wunderground v.1.15,2013-01-27 19:01:00,
2013-01-27 14:05:00,35.7,19.8,30.52,North,360,7.0,10.0,52,0.00,,,0.01,Wunderground v.1.15,2013-01-27 19:05:00,
2013-01-27 14:07:00,35.8,20.3,30.51,North,360,7.0,10.0,53,0.00,,,0.01,Wunderground v.1.15,2013-01-27 19:07:00,
2013-01-27 14:11:00,36.1,20.2,30.52,North,360,6.0,7.0,52,0.00,,,0.01,Wunderground v.1.15,2013-01-27 19:11:00,
2013-01-27 14:13:00,36.2,20.2,30.52,North,360,5.0,12.0,52,0.00,,,0.01,Wunderground v.1.15,2013-01-27 19:13:00,
2013-01-27 14:15:00,36.3,20.3,30.51,North,360,5.0,12.0,52,0.00,,,0.01,Wunderground v.1.15,2013-01-27 19:15:00,
2013-01-27 14:17:00,36.3,20.3,30.51,North,360,5.0,12.0,52,0.00,,,0.01,Wunderground v.1.15,2013-01-27 19:17:00,
2013-01-27 14:23:00,36.5,20.5,30.51,North,360,4.0,4.0,52,0.00,,,0.01,Wunderground v.1.15,2013-01-27 19:23:00,
2013-01-27 14:25:00,36.7,20.7,30.51,North,360,4.0,4.0,52,0.00,,,0.01,Wunderground v.1.15,2013-01-27 19:25:00,
2013-01-27 14:31:00,37.3,20.8,30.50,North,360,4.0,4.0,51,0.00,,,0.01,Wunderground v.1.15,2013-01-27 19:31:00,
2013-01-27 14:33:00,37.5,21.0,30.51,North,360,3.0,10.0,51,0.00,,,0.01,Wunderground v.1.15,2013-01-27 19:33:00,
2013-01-27 14:35:00,37.4,20.4,30.51,North,360,4.0,10.0,50,0.00,,,0.01,Wunderground v.1.15,2013-01-27 19:35:00,
2013-01-27 14:39:00,36.9,20.4,30.51,North,360,6.0,6.0,51,0.00,,,0.01,Wunderground v.1.15,2013-01-27 19:39:00,
2013-01-27 14:41:00,36.8,19.9,30.51,North,360,7.0,7.0,50,0.00,,,0.01,Wunderground v.1.15,2013-01-27 19:41:00,
2013-01-27 14:45:00,36.6,20.2,30.51,North,360,7.0,9.0,51,0.00,,,0.01,Wunderground v.1.15,2013-01-27 19:45:00,
2013-01-27 14:49:00,36.8,20.3,30.51,North,360,7.0,7.0,51,0.00,,,0.01,Wunderground v.1.15,2013-01-27 19:49:00,
2013-01-27 14:51:00,36.8,19.9,30.51,North,360,6.0,7.0,50,0.00,,,0.01,Wunderground v.1.15,2013-01-27 19:51:00,
2013-01-27 14:55:00,36.7,20.3,30.51,North,360,6.0,7.0,51,0.00,,,0.01,Wunderground v.1.15,2013-01-27 19:55:00,
2013-01-27 14:59:00,36.9,20.4,30.51,North,360,6.0,6.0,51,0.00,,,0.02,Wunderground v.1.15,2013-01-27 19:59:00,
2013-01-27 15:01:00,37.1,20.6,30.51,North,360,5.0,6.0,51,0.00,,,0.02,Wunderground v.1.15,2013-01-27 20:01:00,
2013-01-27 15:05:00,37.2,20.2,30.51,North,360,4.0,8.0,50,0.00,,,0.02,Wunderground v.1.15,2013-01-27 20:05:00,
2013-01-27 15:11:00,37.6,20.6,30.51,North,360,2.0,3.0,50,0.00,,,0.02,Wunderground v.1.15,2013-01-27 20:11:00,
2013-01-27 15:14:00,38.0,21.0,30.51,North,360,2.0,3.0,50,0.00,,,0.02,Wunderground v.1.15,2013-01-27 20:14:00,
2013-01-27 15:15:00,38.1,20.6,30.50,North,360,2.0,3.0,49,0.00,,,0.02,Wunderground v.1.15,2013-01-27 20:15:00,
2013-01-27 15:19:00,38.4,20.9,30.50,North,360,2.0,5.0,49,0.00,,,0.02,Wunderground v.1.15,2013-01-27 20:19:00,
2013-01-27 15:23:00,38.7,20.7,30.50,North,360,3.0,5.0,48,0.00,,,0.02,Wunderground v.1.15,2013-01-27 20:23:00,
2013-01-27 15:25:00,38.8,20.8,30.50,North,360,3.0,5.0,48,0.00,,,0.02,Wunderground v.1.15,2013-01-27 20:25:00,
2013-01-27 15:29:00,38.6,20.6,30.50,North,360,4.0,5.0,48,0.00,,,0.02,Wunderground v.1.15,2013-01-27 20:29:00,
2013-01-27 15:31:00,38.3,20.3,30.50,North,360,4.0,5.0,48,0.00,,,0.02,Wunderground v.1.15,2013-01-27 20:31:00,
2013-01-27 15:34:00,38.3,20.3,30.50,North,360,4.0,5.0,48,0.00,,,0.02,Wunderground v.1.15,2013-01-27 20:34:00,
2013-01-27 15:35:00,38.2,20.2,30.50,North,360,4.0,5.0,48,0.00,,,0.02,Wunderground v.1.15,2013-01-27 20:35:00,
2013-01-27 15:37:00,38.2,20.2,30.50,North,360,4.0,5.0,48,0.00,,,0.02,Wunderground v.1.15,2013-01-27 20:37:00,
2013-01-27 15:39:00,38.3,20.8,30.50,North,360,4.0,5.0,49,0.00,,,0.02,Wunderground v.1.15,2013-01-27 20:39:00,
2013-01-27 15:45:00,38.7,21.2,30.50,North,360,2.0,5.0,49,0.00,,,0.02,Wunderground v.1.15,2013-01-27 20:45:00,
2013-01-27 15:47:00,38.8,20.8,30.49,North,360,2.0,7.0,48,0.00,,,0.02,Wunderground v.1.15,2013-01-27 20:47:00,
2013-01-27 15:53:00,38.5,20.5,30.50,North,360,3.0,6.0,48,0.00,,,0.02,Wunderground v.1.15,2013-01-27 20:53:00,
2013-01-27 15:55:00,38.3,20.3,30.50,North,360,4.0,6.0,48,0.00,,,0.02,Wunderground v.1.15,2013-01-27 20:55:00,
2013-01-27 16:01:00,38.2,20.7,30.49,North,360,3.0,3.0,49,0.00,,,0.02,Wunderground v.1.15,2013-01-27 21:01:00,
2013-01-27 16:03:00,38.4,20.9,30.50,North,360,3.0,5.0,49,0.00,,,0.02,Wunderground v.1.15,2013-01-27 21:03:00,
2013-01-27 16:05:00,38.4,20.4,30.50,North,360,3.0,5.0,48,0.00,,,0.02,Wunderground v.1.15,2013-01-27 21:05:00,
2013-01-27 16:07:00,38.4,20.9,30.50,North,360,3.0,5.0,49,0.00,,,0.02,Wunderground v.1.15,2013-01-27 21:07:00,
2013-01-27 16:13:00,38.3,20.8,30.50,North,360,4.0,4.0,49,0.00,,,0.02,Wunderground v.1.15,2013-01-27 21:13:00,
2013-01-27 16:17:00,38.5,21.0,30.50,North,360,3.0,10.0,49,0.00,,,0.02,Wunderground v.1.15,2013-01-27 21:17:00,
2013-01-27 16:19:00,38.4,20.9,30.50,North,360,3.0,6.0,49,0.00,,,0.02,Wunderground v.1.15,2013-01-27 21:19:00,
2013-01-27 16:21:00,38.2,20.7,30.51,North,360,4.0,6.0,49,0.00,,,0.02,Wunderground v.1.15,2013-01-27 21:21:00,
2013-01-27 16:25:00,38.1,21.1,30.51,North,360,4.0,6.0,50,0.00,,,0.02,Wunderground v.1.15,2013-01-27 21:25:00,
2013-01-27 16:27:00,38.1,20.6,30.51,North,360,4.0,6.0,49,0.00,,,0.02,Wunderground v.1.15,2013-01-27 21:27:00,
2013-01-27 16:31:00,37.8,20.8,30.51,North,360,4.0,4.0,50,0.00,,,0.02,Wunderground v.1.15,2013-01-27 21:31:00,
2013-01-27 16:33:00,37.8,20.8,30.50,North,360,3.0,4.0,50,0.00,,,0.02,Wunderground v.1.15,2013-01-27 21:33:00,
2013-01-27 16:37:00,37.8,21.3,30.50,North,360,2.0,4.0,51,0.00,,,0.02,Wunderground v.1.15,2013-01-27 21:37:00,
2013-01-27 16:39:00,37.7,20.7,30.50,North,360,2.0,6.0,50,0.00,,,0.02,Wunderground v.1.15,2013-01-27 21:39:00,
2013-01-27 16:41:00,37.5,20.5,30.50,North,360,3.0,6.0,50,0.00,,,0.02,Wunderground v.1.15,2013-01-27 21:41:00,
2013-01-27 16:45:00,37.3,20.8,30.50,North,360,3.0,6.0,51,0.00,,,0.02,Wunderground v.1.15,2013-01-27 21:45:00,
2013-01-27 16:47:00,37.2,20.7,30.50,North,360,4.0,6.0,51,0.00,,,0.02,Wunderground v.1.15,2013-01-27 21:47:00,
2013-01-27 16:51:00,37.1,20.6,30.50,North,360,4.0,5.0,51,0.00,,,0.02,Wunderground v.1.15,2013-01-27 21:51:00,
2013-01-27 16:53:00,37.1,20.6,30.50,North,360,4.0,5.0,51,0.00,,,0.02,Wunderground v.1.15,2013-01-27 21:53:00,
2013-01-27 16:55:00,37.0,20.5,30.50,North,360,4.0,5.0,51,0.00,,,0.02,Wunderground v.1.15,2013-01-27 21:55:00,
2013-01-27 16:59:00,36.8,20.3,30.50,North,360,5.0,6.0,51,0.00,,,0.02,Wunderground v.1.15,2013-01-27 21:59:00,
2013-01-27 17:05:00,36.8,20.8,30.50,North,360,5.0,6.0,52,0.00,,,0.02,Wunderground v.1.15,2013-01-27 22:05:00,
2013-01-27 17:09:00,36.7,20.7,30.50,North,360,5.0,9.0,52,0.00,,,0.02,Wunderground v.1.15,2013-01-27 22:09:00,
2013-01-27 17:11:00,36.6,20.6,30.50,North,360,6.0,9.0,52,0.00,,,0.02,Wunderground v.1.15,2013-01-27 22:11:00,
2013-01-27 17:13:00,36.6,21.1,30.51,North,360,6.0,9.0,53,0.00,,,0.02,Wunderground v.1.15,2013-01-27 22:13:00,
2013-01-27 17:15:00,36.6,21.5,30.51,North,360,6.0,9.0,54,0.00,,,0.02,Wunderground v.1.15,2013-01-27 22:15:00,
2013-01-27 17:17:00,36.7,21.2,30.50,North,360,5.0,9.0,53,0.00,,,0.02,Wunderground v.1.15,2013-01-27 22:17:00,
2013-01-27 17:19:00,36.7,21.2,30.50,North,360,4.0,6.0,53,0.00,,,0.02,Wunderground v.1.15,2013-01-27 22:19:00,
2013-01-27 17:21:00,36.6,21.1,30.51,North,360,4.0,6.0,53,0.00,,,0.02,Wunderground v.1.15,2013-01-27 22:21:00,
2013-01-27 17:27:00,36.5,21.0,30.51,North,360,4.0,6.0,53,0.00,,,0.02,Wunderground v.1.15,2013-01-27 22:27:00,
2013-01-27 17:29:00,36.5,21.0,30.51,North,360,5.0,5.0,53,0.00,,,0.02,Wunderground v.1.15,2013-01-27 22:29:00,
2013-01-27 17:35:00,36.4,20.9,30.51,North,360,5.0,6.0,53,0.00,,,0.02,Wunderground v.1.15,2013-01-27 22:35:00,
2013-01-27 17:37:00,36.4,20.9,30.51,North,360,5.0,6.0,53,0.00,,,0.03,Wunderground v.1.15,2013-01-27 22:37:00,
2013-01-27 17:39:00,36.4,20.9,30.51,North,360,5.0,5.0,53,0.00,,,0.03,Wunderground v.1.15,2013-01-27 22:39:00,
2013-01-27 17:44:00,36.6,21.1,30.51,North,360,4.0,5.0,53,0.00,,,0.03,Wunderground v.1.15,2013-01-27 22:44:00,
2013-01-27 17:47:00,36.6,21.1,30.51,North,360,3.0,5.0,53,0.00,,,0.03,Wunderground v.1.15,2013-01-27 22:47:00,
2013-01-27 17:51:00,36.5,21.0,30.51,North,360,3.0,6.0,53,0.00,,,0.03,Wunderground v.1.15,2013-01-27 22:51:00,
2013-01-27 17:53:00,36.4,20.9,30.51,North,360,3.0,7.0,53,0.00,,,0.03,Wunderground v.1.15,2013-01-27 22:53:00,
2013-01-27 17:57:00,36.3,21.2,30.51,North,360,4.0,7.0,54,0.00,,,0.03,Wunderground v.1.15,2013-01-27 22:57:00,
2013-01-27 17:59:00,36.2,21.1,30.51,North,360,4.0,7.0,54,0.00,,,0.03,Wunderground v.1.15,2013-01-27 22:59:00,
2013-01-27 18:01:00,36.2,21.1,30.51,North,360,4.0,7.0,54,0.00,,,0.03,Wunderground v.1.15,2013-01-27 23:01:00,
2013-01-27 18:07:00,36.1,20.6,30.51,North,360,5.0,7.0,53,0.00,,,0.03,Wunderground v.1.15,2013-01-27 23:07:00,
2013-01-27 18:09:00,36.0,20.9,30.51,North,360,6.0,6.0,54,0.00,,,0.03,Wunderground v.1.15,2013-01-27 23:09:00,
2013-01-27 18:13:00,36.0,20.9,30.51,North,360,6.0,9.0,54,0.00,,,0.03,Wunderground v.1.15,2013-01-27 23:13:00,
2013-01-27 18:15:00,36.0,20.9,30.50,North,360,6.0,9.0,54,0.00,,,0.03,Wunderground v.1.15,2013-01-27 23:15:00,
2013-01-27 18:19:00,35.9,20.9,30.51,North,360,6.0,7.0,54,0.00,,,0.03,Wunderground v.1.15,2013-01-27 23:19:00,
2013-01-27 18:23:00,35.9,20.9,30.51,North,360,5.0,7.0,54,0.00,,,0.03,Wunderground v.1.15,2013-01-27 23:23:00,
2013-01-27 18:25:00,35.9,21.3,30.51,North,360,5.0,7.0,55,0.00,,,0.03,Wunderground v.1.15,2013-01-27 23:25:00,
2013-01-27 18:27:00,35.9,20.9,30.51,North,360,5.0,10.0,54,0.00,,,0.03,Wunderground v.1.15,2013-01-27 23:27:00,
2013-01-27 18:33:00,35.8,21.2,30.51,North,360,5.0,6.0,55,0.00,,,0.03,Wunderground v.1.15,2013-01-27 23:33:00,
2013-01-27 18:35:00,35.8,21.2,30.51,North,360,5.0,6.0,55,0.00,,,0.03,Wunderground v.1.15,2013-01-27 23:35:00,
2013-01-27 18:37:00,35.8,21.2,30.52,North,360,5.0,6.0,55,0.00,,,0.03,Wunderground v.1.15,2013-01-27 23:37:00,
2013-01-27 18:41:00,35.7,21.1,30.52,North,360,4.0,6.0,55,0.00,,,0.03,Wunderground v.1.15,2013-01-27 23:41:00,
2013-01-27 18:43:00,35.8,21.2,30.52,North,360,4.0,6.0,55,0.00,,,0.03,Wunderground v.1.15,2013-01-27 23:43:00,
2013-01-27 18:45:00,35.8,21.2,30.52,North,360,4.0,6.0,55,0.00,,,0.03,Wunderground v.1.15,2013-01-27 23:45:00,
2013-01-27 18:47:00,35.8,21.2,30.52,North,360,4.0,6.0,55,0.00,,,0.03,Wunderground v.1.15,2013-01-27 23:47:00,
2013-01-27 18:51:00,35.8,21.2,30.52,North,360,3.0,3.0,55,0.00,,,0.03,Wunderground v.1.15,2013-01-27 23:51:00,
2013-01-27 18:53:00,35.9,21.3,30.52,North,360,3.0,3.0,55,0.00,,,0.03,Wunderground v.1.15,2013-01-27 23:53:00,
2013-01-27 18:55:00,35.9,21.3,30.52,North,360,3.0,4.0,55,0.00,,,0.03,Wunderground v.1.15,2013-01-27 23:55:00,
2013-01-27 18:59:00,35.9,21.3,30.52,North,360,3.0,3.0,55,0.00,,,0.03,Wunderground v.1.15,2013-01-27 23:59:00,
2013-01-27 19:03:00,35.9,21.7,30.52,North,360,3.0,3.0,56,0.00,,,0.03,Wunderground v.1.15,2013-01-28 00:03:00,
2013-01-27 19:05:00,35.9,21.7,30.52,North,360,2.0,3.0,56,0.00,,,0.03,Wunderground v.1.15,2013-01-28 00:05:00,
2013-01-27 19:09:00,35.8,21.6,30.52,North,360,3.0,4.0,56,0.00,,,0.03,Wunderground v.1.15,2013-01-28 00:09:00,
2013-01-27 19:11:00,35.8,21.6,30.52,North,360,2.0,4.0,56,0.00,,,0.03,Wunderground v.1.15,2013-01-28 00:11:00,
2013-01-27 19:13:00,35.8,21.6,30.51,North,360,3.0,7.0,56,0.00,,,0.03,Wunderground v.1.15,2013-01-28 00:13:00,
2013-01-27 19:15:00,35.8,21.6,30.51,North,360,3.0,7.0,56,0.00,,,0.03,Wunderground v.1.15,2013-01-28 00:15:00,
2013-01-27 19:21:00,35.7,21.5,30.51,North,360,4.0,6.0,56,0.00,,,0.03,Wunderground v.1.15,2013-01-28 00:21:00,
2013-01-27 19:25:00,35.6,21.4,30.51,North,360,5.0,6.0,56,0.00,,,0.03,Wunderground v.1.15,2013-01-28 00:25:00,
2013-01-27 19:29:00,35.5,21.8,30.50,North,360,5.0,7.0,57,0.00,,,0.03,Wunderground v.1.15,2013-01-28 00:29:00,
2013-01-27 19:31:00,35.5,21.8,30.50,North,360,5.0,7.0,57,0.00,,,0.03,Wunderground v.1.15,2013-01-28 00:31:00,
2013-01-27 19:35:00,35.5,21.8,30.50,North,360,5.0,7.0,57,0.00,,,0.03,Wunderground v.1.15,2013-01-28 00:35:00,
2013-01-27 19:37:00,35.5,21.8,30.50,North,360,5.0,7.0,57,0.00,,,0.03,Wunderground v.1.15,2013-01-28 00:37:00,
2013-01-27 19:41:00,35.5,21.3,30.50,North,360,4.0,5.0,56,0.00,,,0.03,Wunderground v.1.15,2013-01-28 00:41:00,
2013-01-27 19:45:00,35.5,21.3,30.51,North,360,4.0,5.0,56,0.00,,,0.03,Wunderground v.1.15,2013-01-28 00:45:00,
2013-01-27 19:47:00,35.5,21.3,30.51,North,360,3.0,5.0,56,0.00,,,0.03,Wunderground v.1.15,2013-01-28 00:47:00,
2013-01-27 19:49:00,35.5,21.3,30.51,North,360,2.0,2.0,56,0.00,,,0.03,Wunderground v.1.15,2013-01-28 00:49:00,
2013-01-27 19:51:00,35.6,21.4,30.52,North,360,2.0,2.0,56,0.00,,,0.03,Wunderground v.1.15,2013-01-28 00:51:00,
2013-01-27 19:55:00,35.6,21.9,30.52,North,360,1.0,4.0,57,0.00,,,0.03,Wunderground v.1.15,2013-01-28 00:55:00,
2013-01-27 19:59:00,35.6,21.4,30.52,North,360,2.0,2.0,56,0.00,,,0.03,Wunderground v.1.15,2013-01-28 00:59:00,
2013-01-27 20:01:00,35.6,21.9,30.51,North,360,2.0,2.0,57,0.00,,,0.03,Wunderground v.1.15,2013-01-28 01:01:00,
2013-01-27 20:03:00,35.6,21.4,30.51,North,360,3.0,3.0,56,0.00,,,0.03,Wunderground v.1.15,2013-01-28 01:03:00,
2013-01-27 20:07:00,35.7,21.5,30.50,North,360,2.0,3.0,56,0.00,,,0.03,Wunderground v.1.15,2013-01-28 01:07:00,
2013-01-27 20:09:00,35.7,21.5,30.50,North,360,2.0,5.0,56,0.00,,,0.03,Wunderground v.1.15,2013-01-28 01:09:00,
2013-01-27 20:13:00,35.7,21.5,30.50,North,360,2.0,5.0,56,0.00,,,0.03,Wunderground v.1.15,2013-01-28 01:13:00,
2013-01-27 20:15:00,35.7,21.5,30.50,North,360,2.0,5.0,56,0.00,,,0.03,Wunderground v.1.15,2013-01-28 01:15:00,
2013-01-27 20:19:00,35.7,21.1,30.50,North,360,3.0,3.0,55,0.00,,,0.03,Wunderground v.1.15,2013-01-28 01:19:00,
2013-01-27 20:21:00,35.7,21.5,30.49,North,360,3.0,3.0,56,0.00,,,0.03,Wunderground v.1.15,2013-01-28 01:21:00,
2013-01-27 20:25:00,35.7,21.5,30.49,North,360,2.0,3.0,56,0.00,,,0.03,Wunderground v.1.15,2013-01-28 01:25:00,
2013-01-27 20:29:00,35.7,21.1,30.49,North,360,2.0,2.0,55,0.00,,,0.03,Wunderground v.1.15,2013-01-28 01:29:00,
2013-01-27 20:33:00,35.7,21.5,30.49,North,360,2.0,4.0,56,0.00,,,0.03,Wunderground v.1.15,2013-01-28 01:33:00,
2013-01-27 20:35:00,35.6,21.4,30.50,North,360,2.0,4.0,56,0.00,,,0.03,Wunderground v.1.15,2013-01-28 01:35:00,
2013-01-27 20:39:00,35.7,21.5,30.50,North,360,2.0,2.0,56,0.00,,,0.03,Wunderground v.1.15,2013-01-28 01:39:00,
2013-01-27 20:43:00,35.7,21.5,30.50,North,360,1.0,3.0,56,0.00,,,0.03,Wunderground v.1.15,2013-01-28 01:43:00,
2013-01-27 20:45:00,35.7,21.5,30.50,North,360,1.0,3.0,56,0.00,,,0.03,Wunderground v.1.15,2013-01-28 01:45:00,
2013-01-27 20:49:00,35.4,21.2,30.50,North,360,2.0,2.0,56,0.00,,,0.03,Wunderground v.1.15,2013-01-28 01:49:00,
2013-01-27 20:51:00,35.3,21.2,30.50,North,360,2.0,2.0,56,0.00,,,0.03,Wunderground v.1.15,2013-01-28 01:51:00,
2013-01-27 20:57:00,35.4,21.7,30.51,North,360,1.0,2.0,57,0.00,,,0.03,Wunderground v.1.15,2013-01-28 01:57:00,
2013-01-27 20:59:00,35.4,21.2,30.51,North,360,1.0,2.0,56,0.00,,,0.03,Wunderground v.1.15,2013-01-28 01:59:00,
2013-01-27 21:01:00,35.3,21.6,30.51,North,360,1.0,2.0,57,0.00,,,0.03,Wunderground v.1.15,2013-01-28 02:01:00,
2013-01-27 21:03:00,35.3,21.6,30.51,North,360,1.0,2.0,57,0.00,,,0.03,Wunderground v.1.15,2013-01-28 02:03:00,
2013-01-27 21:07:00,35.3,21.6,30.52,North,360,1.0,2.0,57,0.00,,,0.03,Wunderground v.1.15,2013-01-28 02:07:00,
2013-01-27 21:09:00,35.3,21.6,30.52,North,360,0.0,3.0,57,0.00,,,0.03,Wunderground v.1.15,2013-01-28 02:09:00,
2013-01-27 21:14:00,35.3,21.2,30.52,North,360,1.0,3.0,56,0.00,,,0.03,Wunderground v.1.15,2013-01-28 02:14:00,
2013-01-27 21:15:00,35.3,21.2,30.52,North,360,1.0,3.0,56,0.00,,,0.03,Wunderground v.1.15,2013-01-28 02:15:00,
2013-01-27 21:17:00,35.3,21.2,30.52,North,360,2.0,3.0,56,0.00,,,0.03,Wunderground v.1.15,2013-01-28 02:17:00,
2013-01-27 21:21:00,35.3,21.6,30.52,North,360,2.0,4.0,57,0.00,,,0.03,Wunderground v.1.15,2013-01-28 02:21:00,
2013-01-27 21:24:00,35.2,21.5,30.52,North,360,3.0,4.0,57,0.00,,,0.03,Wunderground v.1.15,2013-01-28 02:24:00,
2013-01-27 21:25:00,35.2,21.5,30.52,North,360,3.0,4.0,57,0.00,,,0.03,Wunderground v.1.15,2013-01-28 02:25:00,
2013-01-27 21:31:00,35.2,21.5,30.51,North,360,3.0,3.0,57,0.00,,,0.03,Wunderground v.1.15,2013-01-28 02:31:00,
2013-01-27 21:33:00,35.1,21.4,30.51,North,360,3.0,3.0,57,0.00,,,0.03,Wunderground v.1.15,2013-01-28 02:33:00,
2013-01-27 21:35:00,35.1,21.4,30.51,North,360,3.0,6.0,57,0.00,,,0.03,Wunderground v.1.15,2013-01-28 02:35:00,
2013-01-27 21:39:00,34.9,21.2,30.51,North,360,3.0,3.0,57,0.00,,,0.03,Wunderground v.1.15,2013-01-28 02:39:00,
2013-01-27 21:41:00,34.8,21.1,30.51,North,360,4.0,4.0,57,0.00,,,0.03,Wunderground v.1.15,2013-01-28 02:41:00,
2013-01-27 21:43:00,34.8,21.1,30.51,North,360,4.0,4.0,57,0.00,,,0.03,Wunderground v.1.15,2013-01-28 02:43:00,
2013-01-27 21:47:00,34.7,21.0,30.50,North,360,2.0,4.0,57,0.00,,,0.03,Wunderground v.1.15,2013-01-28 02:47:00,
2013-01-27 21:51:00,34.6,21.3,30.50,North,360,2.0,3.0,58,0.00,,,0.03,Wunderground v.1.15,2013-01-28 02:51:00,
2013-01-27 21:55:00,34.4,21.1,30.50,North,360,2.0,3.0,58,0.00,,,0.03,Wunderground v.1.15,2013-01-28 02:55:00,
2013-01-27 21:59:00,34.4,21.1,30.50,North,360,2.0,2.0,58,0.00,,,0.03,Wunderground v.1.15,2013-01-28 02:59:00,
2013-01-27 22:04:00,34.3,21.4,30.50,North,360,2.0,2.0,59,0.00,,,0.03,Wunderground v.1.15,2013-01-28 03:04:00,
2013-01-27 22:07:00,34.3,21.4,30.50,North,360,2.0,2.0,59,0.00,,,0.03,Wunderground v.1.15,2013-01-28 03:07:00,
2013-01-27 22:14:00,34.1,21.3,30.50,North,360,3.0,5.0,59,0.00,,,0.03,Wunderground v.1.15,2013-01-28 03:14:00,
2013-01-27 22:15:00,34.1,21.3,30.50,North,360,4.0,5.0,59,0.00,,,0.03,Wunderground v.1.15,2013-01-28 03:15:00,
2013-01-27 22:19:00,34.0,21.2,30.50,North,360,4.0,4.0,59,0.00,,,0.03,Wunderground v.1.15,2013-01-28 03:19:00,
2013-01-27 22:21:00,34.0,21.2,30.49,North,360,4.0,4.0,59,0.00,,,0.03,Wunderground v.1.15,2013-01-28 03:21:00,
2013-01-27 22:25:00,34.0,21.2,30.49,North,360,3.0,4.0,59,0.00,,,0.03,Wunderground v.1.15,2013-01-28 03:25:00,
2013-01-27 22:27:00,34.0,20.8,30.49,North,360,3.0,4.0,58,0.00,,,0.03,Wunderground v.1.15,2013-01-28 03:27:00,
2013-01-27 22:29:00,33.9,21.1,30.49,North,360,3.0,3.0,59,0.00,,,0.03,Wunderground v.1.15,2013-01-28 03:29:00,
2013-01-27 22:33:00,33.8,21.0,30.49,North,360,4.0,8.0,59,0.00,,,0.03,Wunderground v.1.15,2013-01-28 03:33:00,
2013-01-27 22:35:00,33.7,20.9,30.49,North,360,5.0,8.0,59,0.00,,,0.03,Wunderground v.1.15,2013-01-28 03:35:00,
2013-01-27 22:37:00,33.7,20.9,30.49,North,360,4.0,8.0,59,0.00,,,0.03,Wunderground v.1.15,2013-01-28 03:37:00,
2013-01-27 22:43:00,33.6,21.2,30.50,North,360,3.0,4.0,60,0.00,,,0.03,Wunderground v.1.15,2013-01-28 03:43:00,
2013-01-27 22:45:00,33.5,21.1,30.50,North,360,3.0,4.0,60,0.00,,,0.03,Wunderground v.1.15,2013-01-28 03:45:00,
2013-01-27 22:51:00,33.4,21.0,30.49,North,360,4.0,11.0,60,0.00,,,0.03,Wunderground v.1.15,2013-01-28 03:51:00,
2013-01-27 22:54:00,33.4,21.0,30.49,North,360,5.0,11.0,60,0.00,,,0.03,Wunderground v.1.15,2013-01-28 03:54:00,
2013-01-27 22:55:00,33.4,21.0,30.48,North,360,5.0,11.0,60,0.00,,,0.03,Wunderground v.1.15,2013-01-28 03:55:00,
2013-01-27 22:59:00,33.4,21.0,30.48,North,360,5.0,5.0,60,0.00,,,0.03,Wunderground v.1.15,2013-01-28 03:59:00,
2013-01-27 23:01:00,33.4,21.0,30.48,North,360,4.0,5.0,60,0.00,,,0.03,Wunderground v.1.15,2013-01-28 04:01:00,
2013-01-27 23:07:00,33.4,21.4,30.49,North,360,3.0,5.0,61,0.00,,,0.03,Wunderground v.1.15,2013-01-28 04:07:00,
2013-01-27 23:09:00,33.5,21.1,30.49,North,360,2.0,6.0,60,0.00,,,0.03,Wunderground v.1.15,2013-01-28 04:09:00,
2013-01-27 23:13:00,33.5,21.5,30.50,North,360,2.0,6.0,61,0.00,,,0.03,Wunderground v.1.15,2013-01-28 04:13:00,
2013-01-27 23:17:00,33.4,21.4,30.50,North,360,3.0,9.0,61,0.00,,,0.03,Wunderground v.1.15,2013-01-28 04:17:00,
2013-01-27 23:19:00,33.4,21.8,30.50,North,360,3.0,5.0,62,0.00,,,0.03,Wunderground v.1.15,2013-01-28 04:19:00,
2013-01-27 23:21:00,33.3,21.7,30.50,North,360,3.0,5.0,62,0.00,,,0.03,Wunderground v.1.15,2013-01-28 04:21:00,
2013-01-27 23:23:00,33.3,21.7,30.50,North,360,3.0,5.0,62,0.00,,,0.03,Wunderground v.1.15,2013-01-28 04:23:00,
2013-01-27 23:29:00,33.4,21.8,30.50,North,360,2.0,2.0,62,0.00,,,0.03,Wunderground v.1.15,2013-01-28 04:29:00,
2013-01-27 23:31:00,33.4,21.8,30.50,North,360,2.0,3.0,62,0.00,,,0.03,Wunderground v.1.15,2013-01-28 04:31:00,
2013-01-27 23:33:00,33.4,21.8,30.50,North,360,2.0,3.0,62,0.00,,,0.03,Wunderground v.1.15,2013-01-28 04:33:00,
2013-01-27 23:35:00,33.4,21.8,30.50,North,360,2.0,3.0,62,0.00,,,0.03,Wunderground v.1.15,2013-01-28 04:35:00,
2013-01-27 23:37:00,33.4,21.8,30.50,North,360,2.0,3.0,62,0.00,,,0.03,Wunderground v.1.15,2013-01-28 04:37:00,
2013-01-27 23:41:00,33.3,21.7,30.50,North,360,2.0,3.0,62,0.00,,,0.03,Wunderground v.1.15,2013-01-28 04:41:00,
2013-01-27 23:43:00,33.3,21.7,30.50,North,360,2.0,3.0,62,0.00,,,0.03,Wunderground v.1.15,2013-01-28 04:43:00,
2013-01-27 23:49:00,33.3,21.7,30.50,North,360,2.0,4.0,62,0.00,,,0.03,Wunderground v.1.15,2013-01-28 04:49:00,
2013-01-27 23:51:00,33.2,22.0,30.50,North,360,2.0,4.0,63,0.00,,,0.03,Wunderground v.1.15,2013-01-28 04:51:00,
2013-01-27 23:55:00,33.2,22.0,30.50,North,360,3.0,5.0,63,0.00,,,0.03,Wunderground v.1.15,2013-01-28 04:55:00,
2013-01-27 23:59:00,33.3,22.1,30.50,North,360,3.0,3.0,63,0.00,,,0.00,Wunderground v.1.15,2013-01-28 04:59:00,